RYR45TM EGSS-EDDH

Flight info

Callsign RYR45TM
Flight time 1h 14m
Altitude 37000
Route CLN P44 SOMVA DCT MAVAS DCT VALAM DCT GASTU DCT OSTOR T904 RIBSO RIBSO3P
Aircraft B38M/M-SDE1FGHILORVWXY/HB1

Departure

Time 2026-04-23 18:28
Airport London Stansted Airport (EGSS)

Arrival

Time 2026-04-23 19:42
Airport Hamburg Helmut Schmidt Airport (EDDH)
Time Latitude Longitude Altitude Speed Heading
2026-04-23 18:23 51.87719 0.22793 354 ft 24 kts 222°
2026-04-23 18:24 51.87522 0.22494 351 ft 13 kts 227°
2026-04-23 18:24 51.87527 0.22410 351 ft 10 kts 311°
2026-04-23 18:24 51.87563 0.22353 342 ft 13 kts 315°
2026-04-23 18:25 51.87576 0.22332 348 ft 0 kts 313°
2026-04-23 18:25 51.87591 0.22308 337 ft 6 kts 320°
2026-04-23 18:25 51.87639 0.22262 336 ft 10 kts 345°
2026-04-23 18:26 51.87706 0.22282 340 ft 11 kts 43°
2026-04-23 18:26 51.87724 0.22311 349 ft 0 kts 44°
2026-04-23 18:27 51.87737 0.22332 350 ft 20 kts 44°
2026-04-23 18:27 51.88038 0.22786 347 ft 97 kts 43°
2026-04-23 18:27 51.88696 0.23777 345 ft 158 kts 44°
2026-04-23 18:28 51.89544 0.25040 953 ft 163 kts 44°
2026-04-23 18:28 51.90372 0.26203 1916 ft 158 kts 44°
2026-04-23 18:28 51.91199 0.27460 2561 ft 168 kts 50°
2026-04-23 18:28 51.91790 0.29159 3107 ft 182 kts 79°
2026-04-23 18:29 51.91678 0.31234 3704 ft 195 kts 108°
2026-04-23 18:29 51.91131 0.33356 4325 ft 211 kts 112°
2026-04-23 18:29 51.90507 0.35559 5088 ft 222 kts 114°
2026-04-23 18:29 51.89809 0.37884 5777 ft 237 kts 114°
2026-04-23 18:30 51.89077 0.40370 6378 ft 256 kts 114°
2026-04-23 18:30 51.88290 0.43044 7105 ft 266 kts 114°
2026-04-23 18:30 51.87491 0.45765 8061 ft 269 kts 114°
2026-04-23 18:30 51.86687 0.48505 8925 ft 273 kts 114°
2026-04-23 18:31 51.85863 0.51314 9840 ft 277 kts 113°
2026-04-23 18:31 51.85030 0.54151 10674 ft 283 kts 113°
2026-04-23 18:31 51.84155 0.57127 11171 ft 301 kts 114°
2026-04-23 18:31 51.83386 0.60296 11699 ft 312 kts 101°
2026-04-23 18:32 51.83215 0.63820 12494 ft 314 kts 89°
2026-04-23 18:32 51.83232 0.67383 13366 ft 317 kts 88°
2026-04-23 18:32 51.83303 0.70920 14212 ft 320 kts 87°
2026-04-23 18:32 51.83405 0.74544 14949 ft 324 kts 86°
2026-04-23 18:33 51.83524 0.78222 15642 ft 330 kts 86°
2026-04-23 18:33 51.83653 0.81958 16358 ft 334 kts 87°
2026-04-23 18:33 51.83789 0.85702 17047 ft 339 kts 87°
2026-04-23 18:33 51.83930 0.89537 17710 ft 344 kts 88°
2026-04-23 18:34 51.84074 0.93422 18368 ft 349 kts 88°
2026-04-23 18:34 51.84220 0.97388 18960 ft 354 kts 88°
2026-04-23 18:34 51.84366 1.01349 19506 ft 358 kts 88°
2026-04-23 18:34 51.84513 1.05402 20088 ft 361 kts 88°
2026-04-23 18:35 51.84658 1.09443 20646 ft 364 kts 89°
2026-04-23 18:35 51.84850 1.13573 21200 ft 369 kts 82°
2026-04-23 18:35 51.85667 1.17544 21804 ft 375 kts 69°
2026-04-23 18:35 51.86686 1.21405 22308 ft 379 kts 70°
2026-04-23 18:36 51.87725 1.25350 22864 ft 382 kts 69°
2026-04-23 18:36 51.88790 1.29351 23415 ft 386 kts 69°
2026-04-23 18:36 51.89854 1.33327 23967 ft 389 kts 69°
2026-04-23 18:36 51.90936 1.37370 24430 ft 392 kts 70°
2026-04-23 18:37 51.92033 1.41470 24900 ft 395 kts 70°
2026-04-23 18:37 51.93117 1.45524 25359 ft 398 kts 70°
2026-04-23 18:37 51.94224 1.49673 25806 ft 401 kts 70°
2026-04-23 18:37 51.95328 1.53820 26245 ft 404 kts 70°
2026-04-23 18:38 51.96451 1.58045 26692 ft 406 kts 70°
2026-04-23 18:38 51.97559 1.62220 27119 ft 409 kts 71°
2026-04-23 18:38 51.98687 1.66475 27549 ft 412 kts 71°
2026-04-23 18:38 52.00013 1.70659 27956 ft 418 kts 65°
2026-04-23 18:39 52.01419 1.74808 28376 ft 420 kts 66°
2026-04-23 18:39 52.02802 1.78965 28761 ft 423 kts 66°
2026-04-23 18:39 52.04186 1.83171 29164 ft 425 kts 66°
2026-04-23 18:39 52.05589 1.87455 29557 ft 428 kts 66°
2026-04-23 18:40 52.06985 1.91732 29929 ft 431 kts 67°
2026-04-23 18:40 52.08401 1.96031 30299 ft 434 kts 66°
2026-04-23 18:40 52.09829 2.00338 30643 ft 437 kts 66°
2026-04-23 18:40 52.11274 2.04714 30973 ft 439 kts 66°
2026-04-23 18:41 52.12723 2.09112 31286 ft 441 kts 66°
2026-04-23 18:41 52.14161 2.13482 31608 ft 443 kts 66°
2026-04-23 18:41 52.15626 2.17945 31927 ft 445 kts 66°
2026-04-23 18:41 52.17073 2.22359 32236 ft 447 kts 66°
2026-04-23 18:42 52.18544 2.26857 32545 ft 449 kts 67°
2026-04-23 18:42 52.20001 2.31318 32835 ft 451 kts 67°
2026-04-23 18:42 52.21476 2.35843 33135 ft 453 kts 67°
2026-04-23 18:42 52.22963 2.40414 33433 ft 455 kts 67°
2026-04-23 18:43 52.24435 2.44947 33720 ft 457 kts 67°
2026-04-23 18:43 52.25930 2.49559 34027 ft 459 kts 67°
2026-04-23 18:43 52.27429 2.54191 34399 ft 458 kts 67°
2026-04-23 18:43 52.28905 2.58761 34749 ft 458 kts 67°
2026-04-23 18:44 52.30360 2.63415 35085 ft 455 kts 71°
2026-04-23 18:44 52.31617 2.68081 35394 ft 454 kts 70°
2026-04-23 18:44 52.32913 2.72829 35707 ft 454 kts 70°
2026-04-23 18:44 52.34204 2.77514 36027 ft 453 kts 70°
2026-04-23 18:45 52.35496 2.82196 36330 ft 453 kts 70°
2026-04-23 18:45 52.36798 2.86916 36635 ft 452 kts 70°
2026-04-23 18:45 52.38095 2.91624 36925 ft 452 kts 70°
2026-04-23 18:45 52.39371 2.96267 37213 ft 452 kts 70°
2026-04-23 18:46 52.40661 3.00969 37428 ft 452 kts 70°
2026-04-23 18:46 52.43222 3.10333 37413 ft 449 kts 70°
2026-04-23 18:47 52.45779 3.19722 37420 ft 449 kts 70°
2026-04-23 18:47 52.48310 3.29052 37428 ft 449 kts 70°
2026-04-23 18:48 52.50834 3.38396 37422 ft 449 kts 70°
2026-04-23 18:48 52.53365 3.47803 37423 ft 449 kts 70°
2026-04-23 18:49 52.55867 3.57140 37432 ft 449 kts 70°
2026-04-23 18:49 52.58390 3.66593 37432 ft 449 kts 70°
2026-04-23 18:50 52.60464 3.74393 37427 ft 449 kts 70°
2026-04-23 18:50 52.63376 3.85392 37427 ft 449 kts 70°
2026-04-23 18:51 52.65848 3.94769 37425 ft 449 kts 70°
2026-04-23 18:51 52.68343 4.04274 37425 ft 449 kts 70°
2026-04-23 18:52 52.70804 4.13688 37419 ft 449 kts 70°
2026-04-23 18:52 52.73270 4.23164 37419 ft 449 kts 70°
2026-04-23 18:53 52.75723 4.32625 37415 ft 449 kts 70°
2026-04-23 18:53 52.78164 4.42083 37413 ft 448 kts 70°
2026-04-23 18:54 52.80609 4.51594 37407 ft 448 kts 70°
2026-04-23 18:54 52.83029 4.61047 37402 ft 448 kts 70°
2026-04-23 18:55 52.85462 4.70592 37399 ft 448 kts 70°
2026-04-23 18:55 52.87868 4.80071 37400 ft 449 kts 70°
2026-04-23 18:56 52.89876 4.88015 37400 ft 449 kts 70°
2026-04-23 18:56 52.92674 4.99130 37403 ft 449 kts 70°
2026-04-23 18:57 52.95069 5.08688 37405 ft 449 kts 70°
2026-04-23 18:57 52.97447 5.18221 37407 ft 449 kts 70°
2026-04-23 18:58 52.99827 5.27800 37404 ft 449 kts 70°
2026-04-23 18:58 53.02206 5.37418 37403 ft 449 kts 70°
2026-04-23 18:59 53.04565 5.46998 37402 ft 449 kts 70°
2026-04-23 18:59 53.06724 5.56748 37402 ft 448 kts 72°
2026-04-23 19:00 53.08822 5.66485 37399 ft 448 kts 72°
2026-04-23 19:00 53.10924 5.76241 37398 ft 448 kts 72°
2026-04-23 19:01 53.13020 5.86012 37397 ft 448 kts 72°
2026-04-23 19:01 53.15100 5.95755 37395 ft 448 kts 72°
2026-04-23 19:02 53.16837 6.03926 37392 ft 448 kts 72°
2026-04-23 19:02 53.19255 6.15354 37389 ft 448 kts 72°
2026-04-23 19:03 53.21312 6.25132 37375 ft 448 kts 72°
2026-04-23 19:03 53.23365 6.34938 37375 ft 448 kts 72°
2026-04-23 19:04 53.25420 6.44796 37372 ft 448 kts 72°
2026-04-23 19:04 53.27448 6.54574 37375 ft 448 kts 73°
2026-04-23 19:05 53.29461 6.64328 37228 ft 436 kts 73°
2026-04-23 19:05 53.30438 6.69081 36803 ft 431 kts 73°
2026-04-23 19:05 53.31413 6.73836 36245 ft 429 kts 73°
2026-04-23 19:05 53.32380 6.78564 35732 ft 427 kts 73°
2026-04-23 19:06 53.33340 6.83264 35230 ft 425 kts 73°
2026-04-23 19:06 53.34284 6.87904 34752 ft 423 kts 73°
2026-04-23 19:06 53.35229 6.92550 34263 ft 421 kts 73°
2026-04-23 19:06 53.36168 6.97186 33702 ft 419 kts 73°
2026-04-23 19:07 53.37103 7.01810 33209 ft 416 kts 73°
2026-04-23 19:07 53.38017 7.06337 32760 ft 413 kts 73°
2026-04-23 19:07 53.38940 7.10919 32286 ft 410 kts 73°
2026-04-23 19:07 53.39846 7.15435 31836 ft 407 kts 72°
2026-04-23 19:08 53.40735 7.19868 31383 ft 405 kts 72°
2026-04-23 19:08 53.41630 7.24349 30938 ft 402 kts 72°
2026-04-23 19:08 53.42516 7.28789 30502 ft 400 kts 72°
2026-04-23 19:08 53.43388 7.33172 30012 ft 397 kts 72°
2026-04-23 19:09 53.44260 7.37565 29553 ft 394 kts 72°
2026-04-23 19:09 53.45126 7.41937 29136 ft 390 kts 72°
2026-04-23 19:09 53.45969 7.46201 28728 ft 387 kts 72°
2026-04-23 19:09 53.46811 7.50471 28322 ft 383 kts 72°
2026-04-23 19:10 53.47648 7.54723 27922 ft 380 kts 72°
2026-04-23 19:10 53.48471 7.58914 27515 ft 377 kts 72°
2026-04-23 19:10 53.49283 7.63057 27135 ft 374 kts 71°
2026-04-23 19:10 53.50099 7.67231 26754 ft 372 kts 71°
2026-04-23 19:11 53.50893 7.71301 26383 ft 369 kts 71°
2026-04-23 19:11 53.51691 7.75403 26007 ft 367 kts 71°
2026-04-23 19:11 53.52486 7.79496 25680 ft 364 kts 71°
2026-04-23 19:11 53.53257 7.83472 25337 ft 361 kts 71°
2026-04-23 19:12 53.53774 7.86141 25102 ft 360 kts 71°
2026-04-23 19:12 53.54798 7.91445 24619 ft 357 kts 71°
2026-04-23 19:12 53.55568 7.95444 24251 ft 356 kts 70°
2026-04-23 19:12 53.56325 7.99378 23885 ft 355 kts 71°
2026-04-23 19:13 53.56829 8.02005 23596 ft 354 kts 70°
2026-04-23 19:13 53.57831 8.07236 23070 ft 351 kts 70°
2026-04-23 19:13 53.58329 8.09846 22826 ft 349 kts 70°
2026-04-23 19:13 53.59072 8.13738 22473 ft 346 kts 70°
2026-04-23 19:14 53.59807 8.17599 22118 ft 343 kts 70°
2026-04-23 19:14 53.60525 8.21374 21757 ft 341 kts 70°
2026-04-23 19:14 53.61243 8.25162 21411 ft 338 kts 70°
2026-04-23 19:14 53.61958 8.28936 21063 ft 338 kts 70°
2026-04-23 19:15 53.62677 8.32742 20711 ft 340 kts 70°
2026-04-23 19:15 53.63385 8.36502 20372 ft 339 kts 69°
2026-04-23 19:15 53.64100 8.40303 20022 ft 338 kts 70°
2026-04-23 19:15 53.64812 8.44092 19681 ft 337 kts 69°
2026-04-23 19:16 53.65513 8.47836 19337 ft 336 kts 69°
2026-04-23 19:16 53.66209 8.51557 19000 ft 335 kts 70°
2026-04-23 19:16 53.66909 8.55311 18656 ft 334 kts 69°
2026-04-23 19:17 53.68285 8.62706 18066 ft 327 kts 69°
2026-04-23 19:17 53.68964 8.66369 17775 ft 324 kts 69°
2026-04-23 19:17 53.69639 8.70008 17446 ft 322 kts 69°
2026-04-23 19:17 53.70298 8.73575 17118 ft 321 kts 69°
2026-04-23 19:18 53.70965 8.77190 16779 ft 320 kts 69°
2026-04-23 19:18 53.71627 8.80789 16446 ft 319 kts 69°
2026-04-23 19:18 53.72280 8.84340 16110 ft 318 kts 69°
2026-04-23 19:18 53.72936 8.87922 15773 ft 317 kts 69°
2026-04-23 19:19 53.74231 8.95002 15105 ft 315 kts 69°
2026-04-23 19:19 53.74877 8.98544 14771 ft 313 kts 69°
2026-04-23 19:20 53.76132 9.05449 14257 ft 305 kts 69°
2026-04-23 19:20 53.76757 9.08895 13903 ft 303 kts 69°
2026-04-23 19:20 53.77368 9.12271 13534 ft 302 kts 69°
2026-04-23 19:20 53.77984 9.15682 13175 ft 301 kts 69°
2026-04-23 19:21 53.78584 9.19012 12943 ft 294 kts 69°
2026-04-23 19:21 53.79729 9.25378 12846 ft 272 kts 68°
2026-04-23 19:21 53.80282 9.28459 12796 ft 281 kts 68°
2026-04-23 19:22 53.80860 9.31689 12732 ft 288 kts 68°
2026-04-23 19:22 53.81425 9.34955 12690 ft 284 kts 74°
2026-04-23 19:22 53.80875 9.41408 12583 ft 296 kts 115°
2026-04-23 19:23 53.79568 9.44226 12519 ft 309 kts 137°
2026-04-23 19:23 53.77731 9.46123 12384 ft 309 kts 159°
2026-04-23 19:23 53.75658 9.46727 12076 ft 307 kts 185°
2026-04-23 19:24 53.71907 9.43947 11550 ft 291 kts 219°
2026-04-23 19:24 53.70251 9.42035 11329 ft 287 kts 218°
2026-04-23 19:24 53.67753 9.37438 11280 ft 256 kts 257°
2026-04-23 19:25 53.67851 9.31839 11270 ft 238 kts 299°
2026-04-23 19:25 53.70087 9.28042 11274 ft 230 kts 338°
2026-04-23 19:26 53.73233 9.27595 11267 ft 233 kts 12°
2026-04-23 19:26 53.74769 9.28554 11273 ft 235 kts 19°
2026-04-23 19:27 53.77728 9.30905 11268 ft 237 kts 23°
2026-04-23 19:27 53.82023 9.35033 11248 ft 241 kts 40°
2026-04-23 19:28 53.83313 9.40369 11171 ft 257 kts 73°
2026-04-23 19:28 53.83958 9.46343 10771 ft 256 kts 74°
2026-04-23 19:29 53.84271 9.49284 10567 ft 256 kts 74°
2026-04-23 19:29 53.84903 9.55278 10260 ft 263 kts 74°
2026-04-23 19:30 53.85571 9.61479 9897 ft 271 kts 74°
2026-04-23 19:30 53.85911 9.64642 9626 ft 272 kts 74°
2026-04-23 19:30 53.86585 9.70927 9107 ft 271 kts 74°
2026-04-23 19:31 53.86919 9.74079 8846 ft 270 kts 74°
2026-04-23 19:31 53.87246 9.77162 8587 ft 267 kts 74°
2026-04-23 19:31 53.87568 9.80234 8324 ft 261 kts 74°
2026-04-23 19:31 53.87872 9.83236 8075 ft 256 kts 76°
2026-04-23 19:32 53.87764 9.86297 7788 ft 267 kts 103°
2026-04-23 19:32 53.87092 9.89206 7545 ft 267 kts 104°
2026-04-23 19:32 53.86532 9.92203 7309 ft 265 kts 101°
2026-04-23 19:32 53.86075 9.95193 7239 ft 262 kts 97°
2026-04-23 19:33 53.85700 9.98193 7229 ft 261 kts 95°
2026-04-23 19:33 53.85381 10.01240 7023 ft 262 kts 93°
2026-04-23 19:33 53.84854 10.07316 6503 ft 260 kts 92°
2026-04-23 19:34 53.84614 10.10357 6230 ft 258 kts 91°
2026-04-23 19:34 53.84387 10.13331 5995 ft 256 kts 91°
2026-04-23 19:34 53.84348 10.19160 5497 ft 239 kts 60°
2026-04-23 19:35 53.85227 10.21460 5276 ft 230 kts 46°
2026-04-23 19:35 53.86150 10.23677 5021 ft 236 kts 59°
2026-04-23 19:35 53.86463 10.26493 4693 ft 251 kts 90°
2026-04-23 19:35 53.85911 10.29308 4352 ft 262 kts 120°
2026-04-23 19:36 53.84582 10.31468 3990 ft 269 kts 150°
2026-04-23 19:36 53.82795 10.32356 3631 ft 268 kts 181°
2026-04-23 19:36 53.81015 10.31852 3400 ft 259 kts 202°
2026-04-23 19:36 53.79337 10.30836 3221 ft 249 kts 209°
2026-04-23 19:37 53.77991 10.29268 3159 ft 225 kts 231°
2026-04-23 19:37 53.77002 10.27321 3111 ft 210 kts 238°
2026-04-23 19:37 53.76118 10.25451 3076 ft 208 kts 238°
2026-04-23 19:37 53.75188 10.23518 3017 ft 214 kts 237°
2026-04-23 19:38 53.74233 10.21572 2996 ft 214 kts 237°
2026-04-23 19:38 53.73294 10.19655 2989 ft 213 kts 237°
2026-04-23 19:38 53.72341 10.17715 2773 ft 212 kts 237°
2026-04-23 19:38 53.71409 10.15820 2501 ft 207 kts 238°
2026-04-23 19:39 53.70508 10.13987 2236 ft 203 kts 238°
2026-04-23 19:39 53.69637 10.12222 1963 ft 187 kts 238°
2026-04-23 19:39 53.68840 10.10599 1715 ft 177 kts 238°
2026-04-23 19:39 53.68067 10.09029 1493 ft 166 kts 238°
2026-04-23 19:40 53.67364 10.07601 1301 ft 152 kts 239°
2026-04-23 19:40 53.66708 10.06266 1077 ft 147 kts 239°
2026-04-23 19:40 53.66065 10.04956 839 ft 143 kts 237°
2026-04-23 19:40 53.65433 10.03680 670 ft 138 kts 237°
2026-04-23 19:41 53.64825 10.02460 475 ft 136 kts 237°
2026-04-23 19:41 53.64205 10.01192 276 ft 141 kts 235°
2026-04-23 19:41 53.63579 9.99930 97 ft 140 kts 234°
2026-04-23 19:41 53.63008 9.98756 48 ft 109 kts 233°
2026-04-23 19:42 53.62611 9.97952 44 ft 71 kts 230°
2026-04-23 19:42 53.62375 9.97478 42 ft 31 kts 230°
2026-04-23 19:42 53.62253 9.97368 43 ft 20 kts 167°
2026-04-23 19:42 53.62179 9.97514 49 ft 13 kts 97°
2026-04-23 19:43 53.62213 9.97663 49 ft 16 kts 50°
2026-04-23 19:43 53.62275 9.97780 49 ft 14 kts 49°
2026-04-23 19:43 53.62344 9.97922 49 ft 17 kts 51°
2026-04-23 19:43 53.62415 9.98060 49 ft 15 kts 44°
2026-04-23 19:44 53.62499 9.98184 49 ft 17 kts 40°
2026-04-23 19:44 53.62580 9.98327 49 ft 17 kts 50°
2026-04-23 19:44 53.62644 9.98458 49 ft 15 kts 49°
2026-04-23 19:44 53.62720 9.98607 49 ft 18 kts 51°
2026-04-23 19:45 53.62804 9.98781 49 ft 19 kts 50°
2026-04-23 19:45 53.62889 9.98952 49 ft 16 kts 50°
2026-04-23 19:45 53.62965 9.99107 49 ft 19 kts 52°
2026-04-23 19:45 53.63053 9.99291 49 ft 21 kts 51°
2026-04-23 19:46 53.63080 9.99354 49 ft 0 kts 56°
2026-04-23 19:48 53.63086 9.99370 49 ft 5 kts 56°
2026-04-23 19:48 53.63135 9.99492 49 ft 19 kts 56°
2026-04-23 19:48 53.63201 9.99635 50 ft 13 kts 50°
2026-04-23 19:49 53.63217 9.99760 49 ft 12 kts 139°
2026-04-23 19:49 53.63136 9.99835 50 ft 15 kts 152°
2026-04-23 19:49 53.63037 9.99919 51 ft 13 kts 153°
2026-04-23 19:49 53.62994 9.99980 51 ft 6 kts 114°
2026-04-23 19:50 53.62978 10.00057 49 ft 8 kts 89°
2026-04-23 19:50 53.63020 10.00132 51 ft 10 kts 30°
2026-04-23 19:50 53.63071 10.00187 51 ft 6 kts 43°
2026-04-23 19:50 53.63077 10.00261 51 ft 8 kts 93°
2026-04-23 19:51 53.63075 10.00327 51 ft 4 kts 93°
2026-04-23 19:51 53.63074 10.00355 51 ft 3 kts 93°
2026-04-23 19:51 53.63074 10.00368 51 ft 0 kts 93°